DW8947 Weather Reports


time (UTC)temp
C
wind
direction
speed
KPH
gust
KPH
rain 1hr
cm
rain 24hr
cm
rain mn
cm
humidity
%
barometer
mb
20260905184705 16 54 0.0 3.2 0.00 0.00 0.00 81 1016.4
20260905182205 16 169 0.0 3.2 0.00 0.00 0.00 84 1016.6
20260905181705 16 169 0.0 3.2 0.00 0.00 0.00 84 1016.6
20260905180705 15 117 0.0 3.2 0.00 0.00 0.00 85 1016.7
20260905174704 14 133 0.0 3.2 0.00 0.00 0.00 88 1016.9
20260905174204 14 133 0.0 3.2 0.00 0.00 0.00 88 1016.9
20260905172705 14 144 0.0 3.2 0.00 0.00 0.00 89 1016.8
20260905172205 14 152 0.0 0.0 0.00 0.00 0.00 90 1016.8
20260905165705 14 152 0.0 3.2 0.00 0.00 0.00 90 1016.7
20260905165205 14 152 0.0 3.2 0.00 0.00 0.00 91 1016.7
20260905164705 14 152 0.0 0.0 0.00 0.00 0.00 91 1016.6
20260905164205 14 152 0.0 3.2 0.00 0.00 0.00 91 1016.6
20260905163705 14 152 0.0 0.0 0.00 0.00 0.00 91 1016.6
20260905162705 13 152 0.0 3.2 0.00 0.00 0.00 92 1016.6
20260905161204 13 152 0.0 3.2 0.00 0.00 0.00 95 1016.5
20260905160705 13 152 0.0 3.2 0.00 0.00 0.00 95 1016.5
20260905160205 12 152 0.0 0.0 0.00 0.00 0.00 95 1016.4
20260905155705 12 152 0.0 3.2 0.00 0.00 0.00 95 1016.4
20260905155204 12 152 0.0 3.2 0.00 0.00 0.00 95 1016.4
20260905154705 12 152 0.0 0.0 0.00 0.00 0.00 95 1016.4
20260905154205 12 152 0.0 3.2 0.00 0.00 0.00 95 1016.4
20260905153705 12 152 0.0 0.0 0.00 0.00 0.00 95 1016.4
20260905152205 12 152 0.0 1.6 0.00 0.00 0.00 95 1016.3
20260905150205 12 152 0.0 0.0 0.00 0.00 0.00 94 1016.1
20260905145705 12 152 0.0 3.2 0.00 0.00 0.00 95 1016.1
20260905142705 11 73 0.0 3.2 0.00 0.00 0.00 94 1016.0
20260905141205 11 73 0.0 3.2 0.00 0.00 0.00 94 1015.9
20260905134705 11 73 0.0 0.0 0.00 0.00 0.00 93 1015.8
20260905133704 11 73 0.0 0.0 0.00 0.00 0.00 93 1015.8
20260905132705 11 73 0.0 0.0 0.00 0.00 0.00 94 1015.8
20260905130205 11 73 0.0 0.0 0.00 0.00 0.00 93 1015.7
20260905124704 11 73 0.0 0.0 0.00 0.00 0.00 93 1015.5
20260905123705 11 73 0.0 0.0 0.00 0.00 0.00 93 1015.4
20260905122705 11 73 0.0 0.0 0.00 0.00 0.00 93 1015.4
20260905121705 11 73 0.0 3.2 0.00 0.00 0.00 93 1015.4
20260905115704 11 73 0.0 0.0 0.00 0.00 0.00 92 1015.4
20260905115204 11 73 0.0 0.0 0.00 0.00 0.00 92 1015.4
20260905114705 12 73 0.0 0.0 0.00 0.00 0.00 92 1015.3
20260905112704 12 73 0.0 0.0 0.00 0.00 0.00 92 1015.1
20260905111705 12 73 0.0 3.2 0.00 0.00 0.00 92 1015.2
20260905110704 12 73 0.0 0.0 0.00 0.00 0.00 91 1015.2
20260905110204 12 73 0.0 0.0 0.00 0.00 0.00 91 1015.2
20260905105705 12 73 0.0 3.2 0.00 0.00 0.00 91 1015.2
20260905105204 12 73 0.0 3.2 0.00 0.00 0.00 91 1015.2
20260905104705 12 73 0.0 3.2 0.00 0.00 0.00 91 1015.3
20260905104205 12 73 0.0 3.2 0.00 0.00 0.00 91 1015.2
20260905103705 12 73 0.0 0.0 0.00 0.00 0.00 91 1015.3
20260905102704 12 73 0.0 3.2 0.00 0.00 0.00 92 1015.2
20260905102205 12 73 0.0 3.2 0.00 0.00 0.00 92 1015.2
20260905101204 12 73 0.0 3.2 0.00 0.00 0.00 92 1015.1
20260905100705 12 73 0.0 3.2 0.00 0.00 0.00 92 1015.1
20260905095705 12 73 0.0 0.0 0.00 0.00 0.00 91 1015.1
20260905094706 12 73 0.0 3.2 0.00 0.00 0.00 91 1015.1
20260905094204 12 73 0.0 0.0 0.00 0.00 0.00 91 1015.1
20260905093205 12 73 0.0 0.0 0.00 0.00 0.00 91 1015.0
20260905091705 12 73 0.0 0.0 0.00 0.00 0.00 91 1014.9
20260905091204 12 73 0.0 0.0 0.00 0.00 0.00 91 1014.9
20260905090705 12 73 0.0 0.0 0.00 0.00 0.00 91 1014.8
20260905085705 12 73 0.0 3.2 0.00 0.00 0.00 91 1014.8
20260905084705 12 73 0.0 1.6 0.00 0.00 0.00 90 1014.7
20260905083205 12 73 0.0 3.2 0.00 0.00 0.00 89 1014.7
20260905082704 12 73 0.0 1.6 0.00 0.00 0.00 89 1014.7
20260905081705 13 73 0.0 3.2 0.00 0.00 0.00 88 1014.8
20260905081205 13 73 0.0 3.2 0.00 0.00 0.00 88 1014.8
20260905080704 13 73 0.0 3.2 0.00 0.00 0.00 88 1014.7
20260905075204 13 73 0.0 3.2 0.00 0.00 0.00 87 1014.7
20260905073204 13 73 0.0 3.2 0.00 0.00 0.00 86 1014.5
20260905072705 13 73 0.0 3.2 0.00 0.00 0.00 86 1014.5
20260905072205 13 154 0.0 1.6 0.00 0.00 0.00 86 1014.5
20260905070705 13 95 0.0 3.2 0.00 0.00 0.00 85 1014.3
20260905070205 13 95 0.0 3.2 0.00 0.00 0.00 85 1014.3
20260905065705 13 140 0.0 3.2 0.00 0.00 0.00 86 1014.3
20260905065205 13 140 0.0 3.2 0.00 0.00 0.00 85 1014.3
20260905061204 14 140 0.0 0.0 0.00 0.00 0.00 86 1014.3
20260905055205 14 140 0.0 0.0 0.00 0.00 0.00 85 1014.3
20260905054205 14 140 0.0 1.6 0.00 0.00 0.00 85 1014.3
20260905052705 14 140 0.0 0.0 0.00 0.00 0.00 84 1014.3
20260905051205 14 140 0.0 0.0 0.00 0.00 0.00 84 1014.2
20260905050204 14 140 0.0 3.2 0.00 0.00 0.00 84 1014.2
20260905045705 14 140 0.0 0.0 0.00 0.00 0.00 83 1014.3
20260905044205 14 140 0.0 0.0 0.00 0.00 0.00 83 1014.3
20260905043705 15 140 0.0 3.2 0.00 0.00 0.00 82 1014.3
20260905042705 15 140 0.0 0.0 0.00 0.00 0.00 81 1014.3
20260905042205 15 140 0.0 0.0 0.00 0.00 0.00 81 1014.2
20260905041204 15 140 0.0 0.0 0.00 0.00 0.00 79 1014.2
20260905034204 15 140 0.0 0.0 0.00 0.00 0.00 77 1014.0
20260905032705 16 140 0.0 3.2 0.00 0.00 0.00 76 1013.9
20260905032205 16 140 0.0 0.0 0.00 0.00 0.00 76 1013.9
20260905031705 16 140 0.0 3.2 0.00 0.00 0.00 76 1013.9
20260905031204 16 140 0.0 0.0 0.00 0.00 0.00 76 1013.8
20260905024705 16 140 0.0 0.0 0.00 0.00 0.00 73 1013.6
20260905024204 17 140 0.0 1.6 0.00 0.00 0.00 73 1013.6
20260905023704 17 140 0.0 3.2 0.00 0.00 0.00 73 1013.6
20260905022704 17 140 0.0 3.2 0.00 0.00 0.00 73 1013.6
20260905015205 18 94 0.0 0.0 0.00 0.00 0.00 69 1013.5
20260905014705 18 94 0.0 3.2 0.00 0.00 0.00 69 1013.5
20260905013204 18 176 0.0 3.2 0.00 0.00 0.00 68 1013.3
20260905012705 18 197 0.0 3.2 0.00 0.00 0.00 68 1013.2
20260905012205 18 244 1.6 3.2 0.00 0.00 0.00 66 1013.1
20260905010705 18 16 0.0 1.6 0.00 0.00 0.00 66 1013.0
20260905005204 18 173 0.0 3.2 0.00 0.00 0.00 64 1012.8
20260905003704 19 339 1.6 3.2 0.00 0.00 0.00 62 1012.5
20260905003204 19 298 1.6 3.2 0.00 0.00 0.00 62 1012.5
20260905002205 19 303 1.6 4.8 0.00 0.00 0.00 62 1012.3
20260905001704 19 8 0.0 3.2 0.00 0.00 0.00 65 1012.3
20260905000205 20 331 1.6 3.2 0.00 0.00 0.00 65 1012.2
20260904235704 20 89 1.6 3.2 0.00 0.00 0.00 61 1012.2
20260904234704 20 146 0.0 3.2 0.00 0.00 0.00 62 1012.2
20260904234205 20 132 1.6 3.2 0.00 0.00 0.00 62 1012.2
20260904232204 20 47 1.6 1.6 0.00 0.00 0.00 66 1012.2
20260904231705 20 167 0.0 3.2 0.00 0.00 0.00 64 1012.1
20260904231205 20 229 0.0 3.2 0.00 0.00 0.00 63 1012.0
20260904225705 20 160 1.6 1.6 0.00 0.00 0.00 61 1012.0
20260904224204 20 155 0.0 4.8 0.00 0.00 0.00 64 1011.9
20260904223204 19 174 1.6 3.2 0.00 0.00 0.00 64 1012.0
20260904222204 19 335 0.0 3.2 0.00 0.00 0.00 63 1011.9
20260904215704 18 191 0.0 3.2 0.00 0.00 0.00 65 1012.0
20260904215205 18 245 0.0 3.2 0.00 0.00 0.00 65 1012.0
20260904214705 18 277 0.0 3.2 0.00 0.00 0.00 65 1011.9
20260904214205 18 238 1.6 3.2 0.00 0.00 0.00 64 1012.0
20260904213704 18 260 0.0 4.8 0.00 0.00 0.00 64 1012.1
20260904213205 18 318 1.6 4.8 0.00 0.00 0.00 66 1012.0
20260904212204 18 161 0.0 1.6 0.00 0.00 0.00 67 1012.0
20260904211205 19 281 1.6 3.2 0.00 0.00 0.00 63 1011.9
20260904210705 19 176 1.6 3.2 0.00 0.00 0.00 64 1011.9
20260904210204 19 312 0.0 3.2 0.00 0.00 0.00 64 1011.8
20260904205705 19 302 0.0 1.6 0.00 0.00 0.00 62 1011.9
20260904204204 20 223 1.6 4.8 0.00 0.00 0.00 56 1011.8
20260904201704 21 156 1.6 3.2 0.00 0.00 0.00 56 1011.9
20260904201205 21 135 1.6 3.2 0.00 0.00 0.00 59 1011.9
20260904193704 20 317 0.0 3.2 0.00 0.00 0.00 64 1012.0
20260904193205 20 310 1.6 1.6 0.00 0.00 0.00 65 1012.0
20260904191705 18 77 0.0 3.2 0.00 0.00 0.00 73 1012.1
20260904191205 18 239 0.0 3.2 0.00 0.00 0.00 71 1012.1
20260904190204 17 105 0.0 3.2 0.00 0.00 0.00 74 1012.1